EW9202 Weather Reports


Display with metric or nautical units.
time (UTC)temp
F
wind
direction
speed
MPH
gust
MPH
rain 1hr
in
rain 24hr
in
rain mn
in
humidity
%
barometer
mb
20260504231602 59 90 7.0 14.0 0.06 0.06 0.06 83 1009.0
20260504230054 60 128 3.0 11.0 0.05 0.05 0.05 80 1009.6
20260504224550 61 88 2.0 5.0 0.03 0.03 0.03 79 1010.1
20260504223037 62 240 3.0 9.0 0.03 0.03 0.03 76 1010.8
20260504221535 64 223 5.0 17.0 0.00 0.00 0.00 66 1010.9
20260504214600 66 68 0.0 0.0 0.00 0.00 0.00 58 1009.4
20260504213029 66 68 0.0 2.0 0.00 0.00 0.00 55 1009.7
20260504211506 66 71 1.0 3.0 0.00 0.00 0.00 55 1009.7
20260504210027 66 74 0.0 1.0 0.00 0.00 0.00 56 1009.8
20260504204531 66 74 0.0 0.0 0.00 0.00 0.00 56 1009.9
20260504203058 67 74 0.0 0.0 0.00 0.00 0.00 54 1009.8
20260504201521 67 74 0.0 0.0 0.00 0.00 0.00 52 1009.8
20260504200012 68 75 0.0 5.0 0.00 0.00 0.00 50 1009.9
20260504194529 68 74 0.0 2.0 0.00 0.00 0.00 50 1009.8
20260504193037 69 74 1.0 4.0 0.00 0.00 0.00 49 1009.8
20260504191526 70 77 0.0 1.0 0.00 0.00 0.00 48 1009.8
20260504190040 70 77 1.0 5.0 0.00 0.00 0.00 46 1009.7
20260504184535 71 38 1.0 4.0 0.00 0.00 0.00 45 1009.6
20260504183044 71 53 1.0 4.0 0.00 0.00 0.00 44 1009.5
20260504181555 72 35 0.0 3.0 0.00 0.00 0.00 43 1009.5
20260504180107 72 42 1.0 4.0 0.00 0.00 0.00 42 1009.5
20260504174556 72 26 1.0 5.0 0.00 0.00 0.00 41 1009.5
20260504173110 73 42 3.0 7.0 0.00 0.00 0.00 41 1009.5
20260504171514 73 47 2.0 6.0 0.00 0.00 0.00 41 1009.5
20260504081502 67 350 1.0 7.0 0.00 0.00 0.00 48 1012.5
20260504080104 65 252 0.0 9.0 0.00 0.00 0.00 51 1012.5
20260504050019 54 213 1.0 7.0 0.00 0.00 0.00 73 1011.8
20260504044527 54 196 1.0 4.0 0.00 0.00 0.00 73 1011.4
20260504043055 53 76 0.0 0.0 0.00 0.00 0.00 74 1011.4
20260504041502 53 71 0.0 0.0 0.00 0.00 0.00 74 1011.7
20260504040106 53 74 0.0 0.0 0.00 0.00 0.00 73 1011.8
20260504034532 53 73 0.0 0.0 0.00 0.00 0.00 72 1011.9
20260504033102 53 70 0.0 0.0 0.00 0.00 0.00 70 1011.6
20260504031534 54 68 0.0 0.0 0.00 0.00 0.00 68 1011.5
20260504030007 54 71 0.0 0.0 0.00 0.00 0.00 67 1011.5
20260504024505 55 69 0.0 0.0 0.00 0.00 0.00 64 1011.6
20260504023041 56 69 0.0 0.0 0.00 0.00 0.00 62 1011.6
20260504021538 57 66 0.0 0.0 0.00 0.00 0.00 59 1011.6
20260504020019 58 69 0.0 0.0 0.00 0.00 0.00 58 1011.4
20260504014610 58 71 0.0 4.0 0.00 0.00 0.00 57 1011.2
20260504013012 58 70 3.0 6.0 0.00 0.00 0.00 58 1011.3
20260504011539 58 59 1.0 5.0 0.00 0.00 0.00 58 1011.4
20260504010100 58 196 0.0 0.0 0.00 0.00 0.00 59 1011.4
20260504004533 59 189 0.0 0.0 0.00 0.00 0.00 58 1011.2
20260504003008 59 191 0.0 3.0 0.00 0.00 0.00 57 1011.0
20260504001623 59 209 0.0 0.0 0.00 0.00 0.00 56 1010.9
20260504000032 60 211 0.0 0.0 0.00 0.00 0.00 55 1011.0
20260503234546 61 210 0.0 1.0 0.00 0.00 0.00 54 1010.8
20260503233107 61 211 0.0 0.0 0.00 0.00 0.00 53 1010.7